Cocoa Beach, FL

7:56 AM EDT on July 23, 2017 (GMT -0400)
Patrick Air Force Base

Weather History for KCOF - August, 2013

Change the Weather History Date:

Monday, August 26, 2013

  Actual Average Record
Temperature  
Mean Temperature 82 °F -  
Max Temperature 87 °F 85 °F 93 °F (1998)
Min Temperature 79 °F 75 °F 74 °F (2015)
Cooling Degree Days 18    
Growing Degree Days 32 (Base 50)    
Moisture  
Dew Point 73 °F    
Average Humidity 72    
Maximum Humidity 79    
Minimum Humidity 64    
Precipitation  
Precipitation 0.00 in - - ()
Sea Level Pressure  
Sea Level Pressure 30.09 in    
Wind  
Wind Speed 9 mph (ENE)    
Max Wind Speed 20 mph    
Max Gust Speed -    
Visibility 10 miles    
Events      
Averages and records for this station are not official NWS values.
T = Trace of Precipitation, MM = Missing Value Source: NWS Daily Summary

Daily Weather History Graph

Daily Weather History Graph

Search for Another Location

Airport or City:

Trip Planner

Search our weather history database for the weather conditions in past years. The results will help you decide how hot, cold, wet, or windy it might be!

Date:

Astronomy

Aug. 26, 2013 Rise Set
Actual Time 6:58 AM EDT 7:49 PM EDT
Civil Twilight 6:33 AM EDT 8:13 PM EDT
Nautical Twilight 6:05 AM EDT 8:42 PM EDT
Astronomical Twilight 5:36 AM EDT 9:11 PM EDT
Moon 11:34 PM EDT (8/26) 12:24 PM EDT (8/26)
Length of Visible Light 13h 40m
Length of Day
12h 51m
Waning Gibbous, 67% of the Moon is Illuminated
Aug 26
Waning Gibbous
Aug 28
Last Quarter
Sep 5
New
Sep 12
First Quarter
Sep 19
Full

Hourly Weather History & Observations

Time (EDT) Temp. Heat Index Dew Point Humidity Pressure Visibility Wind Dir Wind Speed Gust Speed Precip Events Conditions
12:58 AM 79.9 °F - 72.7 °F 79% 30.14 in 10.0 mi NNE 5.8 mph - N/A   Clear
1:58 AM 79.9 °F - 72.5 °F 78% 30.12 in 10.0 mi North 6.9 mph - N/A   Clear
2:58 AM 79.5 °F - 72.5 °F 79% 30.11 in 10.0 mi North 6.9 mph - N/A   Clear
3:58 AM 80.4 °F 85.0 °F 73.4 °F 79% 30.09 in 10.0 mi NE 12.7 mph - N/A   Scattered Clouds
4:58 AM 80.8 °F 85.4 °F 73.0 °F 77% 30.11 in 10.0 mi NE 12.7 mph - N/A   Clear
5:58 AM 80.4 °F 84.2 °F 71.6 °F 74% 30.11 in 10.0 mi NE 10.4 mph - N/A   Clear
6:58 AM 79.9 °F - 72.0 °F 77% 30.11 in 10.0 mi NE 9.2 mph - N/A   Clear
7:58 AM 80.6 °F 85.4 °F 73.4 °F 79% 30.11 in 10.0 mi North 5.8 mph - N/A   Clear
8:58 AM 80.8 °F 85.2 °F 72.5 °F 76% 30.12 in 10.0 mi North 5.8 mph - N/A   Clear
9:58 AM 81.5 °F 86.5 °F 73.0 °F 75% 30.12 in 10.0 mi North 4.6 mph - N/A   Clear
10:10 AM 82.4 °F 88.2 °F 73.4 °F 74% 30.11 in 10.0 mi NE 4.6 mph - N/A   Light Drizzle
10:22 AM 84.2 °F 90.9 °F 73.4 °F 70% 30.11 in 10.0 mi North 5.8 mph - N/A   Partly Cloudy
10:58 AM 85.8 °F 94.2 °F 74.7 °F 69% 30.12 in 10.0 mi NE 6.9 mph - 0.00 in   Partly Cloudy
11:58 AM 85.1 °F 92.9 °F 74.5 °F 70% 30.12 in 10.0 mi ENE 5.8 mph - N/A   Clear
12:58 PM 86.0 °F 93.0 °F 72.9 °F 65% 30.12 in 10.0 mi East 9.2 mph - N/A   Clear
1:58 PM 86.4 °F 95.1 °F 74.5 °F 68% 30.11 in 10.0 mi East 11.5 mph - N/A   Clear
2:58 PM 86.5 °F 94.6 °F 73.8 °F 66% 30.09 in 10.0 mi ENE 10.4 mph - N/A   Clear
3:58 PM 86.9 °F 94.5 °F 73.6 °F 64% 30.06 in 10.0 mi ENE 10.4 mph - N/A   Clear
4:58 PM 86.0 °F 93.4 °F 73.6 °F 66% 30.06 in 10.0 mi East 11.5 mph - N/A   Clear
5:58 PM 85.6 °F 93.0 °F 73.6 °F 67% 30.06 in 10.0 mi East 11.5 mph - N/A   Clear
6:58 PM 84.6 °F 91.0 °F 72.9 °F 68% 30.06 in 10.0 mi East 12.7 mph - N/A   Clear
7:42 PM 82.4 °F 86.3 °F 69.8 °F 66% 30.04 in 10.0 mi East 19.6 mph - N/A   Light Drizzle
7:52 PM 82.4 °F 86.3 °F 69.8 °F 66% 30.04 in 10.0 mi East 17.3 mph - N/A   Partly Cloudy
7:58 PM 81.9 °F 86.0 °F 70.9 °F 69% 30.06 in 10.0 mi East 18.4 mph - 0.00 in   Partly Cloudy
8:58 PM 81.5 °F 86.1 °F 72.0 °F 73% 30.08 in 10.0 mi ESE 12.7 mph - N/A   Clear
9:58 PM 81.9 °F 86.0 °F 70.7 °F 69% 30.08 in 10.0 mi East 12.7 mph - N/A   Clear
10:58 PM 80.8 °F 84.4 °F 70.7 °F 71% 30.09 in 10.0 mi ESE 16.1 mph - N/A   Mostly Cloudy
11:58 PM 79.9 °F - 69.1 °F 69% 30.09 in 10.0 mi ESE 12.7 mph - N/A   Clear